Time,TemperatureF,DewpointF,PressureIn,WindDirection,WindDirectionDegrees,WindSpeedMPH,WindSpeedGustMPH,Humidity,HourlyPrecipIn,Conditions,Clouds,dailyrainin,SolarRadiationWatts/m^2,SoftwareType,DateUTC
2013-03-04 00:04:00,52.5,47.2,30.02,SSW,208,2.0,2.0,82,0.00,,,0.00,0,Wunderground v.1.15,2013-03-04 06:04:00,
2013-03-04 00:10:00,52.7,47.4,30.02,South,171,2.0,2.0,82,0.00,,,0.00,0,Wunderground v.1.15,2013-03-04 06:10:00,
2013-03-04 00:15:00,52.6,47.3,30.03,SSW,196,2.0,2.0,82,0.00,,,0.00,0,Wunderground v.1.15,2013-03-04 06:15:00,
2013-03-04 00:24:00,52.7,47.4,30.03,SSW,208,1.0,3.0,82,0.00,,,0.00,0,Wunderground v.1.15,2013-03-04 06:24:00,
2013-03-04 00:29:00,52.6,47.6,30.03,SSE,166,2.0,2.0,83,0.00,,,0.00,0,Wunderground v.1.15,2013-03-04 06:29:00,
2013-03-04 00:34:00,52.7,47.7,30.02,South,176,2.0,2.0,83,0.00,,,0.00,0,Wunderground v.1.15,2013-03-04 06:34:00,
2013-03-04 00:40:00,52.8,47.8,30.02,South,190,2.0,2.0,83,0.00,,,0.00,0,Wunderground v.1.15,2013-03-04 06:40:00,
2013-03-04 00:45:00,52.7,47.7,30.01,SSE,161,1.0,2.0,83,0.00,,,0.00,0,Wunderground v.1.15,2013-03-04 06:45:00,
2013-03-04 00:54:00,52.8,48.1,30.01,South,174,2.0,4.0,84,0.00,,,0.00,0,Wunderground v.1.15,2013-03-04 06:54:00,
2013-03-04 00:59:00,52.9,48.2,30.01,SSW,196,2.0,4.0,84,0.00,,,0.00,0,Wunderground v.1.15,2013-03-04 06:59:00,
2013-03-04 01:09:00,53.0,48.3,30.01,SE,144,3.0,4.0,84,0.00,,,0.00,0,Wunderground v.1.15,2013-03-04 07:09:00,
2013-03-04 01:14:00,53.1,48.4,30.00,South,182,3.0,5.0,84,0.00,,,0.00,0,Wunderground v.1.15,2013-03-04 07:14:00,
2013-03-04 01:19:00,53.1,48.7,30.00,SSW,196,2.0,3.0,85,0.00,,,0.00,0,Wunderground v.1.15,2013-03-04 07:19:00,
2013-03-04 01:24:00,53.1,48.4,30.00,SSE,166,2.0,4.0,84,0.00,,,0.00,0,Wunderground v.1.15,2013-03-04 07:24:00,
2013-03-04 01:30:00,53.0,48.6,30.00,South,182,1.0,1.0,85,0.00,,,0.00,0,Wunderground v.1.15,2013-03-04 07:30:00,
2013-03-04 01:39:00,52.8,48.4,30.00,SSW,210,1.0,5.0,85,0.00,,,0.00,0,Wunderground v.1.15,2013-03-04 07:39:00,
2013-03-04 01:44:00,52.8,48.7,30.00,South,179,1.0,5.0,86,0.00,,,0.00,0,Wunderground v.1.15,2013-03-04 07:44:00,
2013-03-04 01:50:00,52.8,48.7,30.00,SSE,168,2.0,2.0,86,0.00,,,0.00,0,Wunderground v.1.15,2013-03-04 07:50:00,
2013-03-04 02:00:00,52.8,48.7,30.00,South,169,1.0,1.0,86,0.00,,,0.00,0,Wunderground v.1.15,2013-03-04 08:00:00,
2013-03-04 02:09:00,52.5,48.7,30.00,South,186,1.0,1.0,87,0.00,,,0.00,0,Wunderground v.1.15,2013-03-04 08:09:00,
2013-03-04 02:14:00,52.4,48.9,30.00,SSE,168,1.0,1.0,88,0.00,,,0.00,0,Wunderground v.1.15,2013-03-04 08:14:00,
2013-03-04 02:24:00,52.3,48.9,29.99,South,186,0.0,1.0,88,0.00,,,0.00,0,Wunderground v.1.15,2013-03-04 08:24:00,
2013-03-04 02:29:00,52.2,49.1,29.99,SSE,167,1.0,2.0,89,0.00,,,0.00,0,Wunderground v.1.15,2013-03-04 08:29:00,
2013-03-04 02:34:00,52.2,49.1,29.99,South,185,1.0,2.0,89,0.00,,,0.00,0,Wunderground v.1.15,2013-03-04 08:34:00,
2013-03-04 02:39:00,52.2,49.1,29.99,South,172,1.0,1.0,89,0.00,,,0.00,0,Wunderground v.1.15,2013-03-04 08:39:00,
2013-03-04 02:45:00,52.2,49.4,29.99,South,177,1.0,1.0,90,0.00,,,0.00,0,Wunderground v.1.15,2013-03-04 08:45:00,
2013-03-04 02:54:00,52.5,49.7,29.99,South,175,1.0,2.0,90,0.00,,,0.00,0,Wunderground v.1.15,2013-03-04 08:54:00,
2013-03-04 02:59:00,52.6,49.8,29.99,South,181,1.0,1.0,90,0.00,,,0.00,0,Wunderground v.1.15,2013-03-04 08:59:00,
2013-03-04 03:05:00,52.7,49.8,29.98,SSW,192,1.0,1.0,90,0.00,,,0.00,0,Wunderground v.1.15,2013-03-04 09:05:00,
2013-03-04 03:14:00,52.8,49.9,29.97,South,176,1.0,2.0,90,0.00,,,0.00,0,Wunderground v.1.15,2013-03-04 09:14:00,
2013-03-04 03:19:00,52.8,49.9,29.97,South,180,1.0,1.0,90,0.00,,,0.00,0,Wunderground v.1.15,2013-03-04 09:19:00,
2013-03-04 03:24:00,52.6,49.4,29.97,SW,214,1.0,2.0,89,0.00,,,0.00,0,Wunderground v.1.15,2013-03-04 09:24:00,
2013-03-04 03:29:00,52.7,49.8,29.97,South,185,1.0,1.0,90,0.00,,,0.00,0,Wunderground v.1.15,2013-03-04 09:29:00,
2013-03-04 03:35:00,52.7,49.8,29.96,South,173,1.0,1.0,90,0.00,,,0.00,0,Wunderground v.1.15,2013-03-04 09:35:00,
2013-03-04 03:40:00,52.8,49.9,29.96,SSW,199,1.0,1.0,90,0.00,,,0.00,0,Wunderground v.1.15,2013-03-04 09:40:00,
2013-03-04 03:49:00,52.7,49.8,29.96,SSE,162,1.0,1.0,90,0.00,,,0.00,0,Wunderground v.1.15,2013-03-04 09:49:00,
2013-03-04 03:54:00,52.7,50.1,29.96,SSW,199,1.0,1.0,91,0.00,,,0.00,0,Wunderground v.1.15,2013-03-04 09:54:00,
2013-03-04 03:59:00,52.6,50.0,29.95,SSW,194,0.0,0.0,91,0.00,,,0.00,0,Wunderground v.1.15,2013-03-04 09:59:00,
2013-03-04 04:05:00,52.7,50.1,29.95,South,177,1.0,3.0,91,0.00,,,0.00,0,Wunderground v.1.15,2013-03-04 10:05:00,
2013-03-04 04:14:00,52.9,50.3,29.95,South,176,1.0,5.0,91,0.00,,,0.00,0,Wunderground v.1.15,2013-03-04 10:14:00,
2013-03-04 04:19:00,53.2,50.6,29.95,South,179,2.0,2.0,91,0.00,,,0.00,0,Wunderground v.1.15,2013-03-04 10:19:00,
2013-03-04 04:24:00,53.3,50.7,29.95,South,182,2.0,2.0,91,0.00,,,0.00,0,Wunderground v.1.15,2013-03-04 10:24:00,
2013-03-04 04:29:00,53.3,50.7,29.94,SSE,164,2.0,3.0,91,0.00,,,0.00,0,Wunderground v.1.15,2013-03-04 10:29:00,
2013-03-04 04:39:00,53.3,50.7,29.95,South,175,2.0,2.0,91,0.00,,,0.00,0,Wunderground v.1.15,2013-03-04 10:39:00,
2013-03-04 04:44:00,53.3,50.7,29.95,SSW,207,1.0,2.0,91,0.00,,,0.00,0,Wunderground v.1.15,2013-03-04 10:44:00,
2013-03-04 04:49:00,53.4,50.8,29.94,SSE,166,1.0,1.0,91,0.00,,,0.00,0,Wunderground v.1.15,2013-03-04 10:49:00,
2013-03-04 04:59:00,53.4,50.8,29.95,South,175,1.0,1.0,91,0.00,,,0.00,0,Wunderground v.1.15,2013-03-04 10:59:00,
2013-03-04 05:09:00,53.2,50.6,29.95,South,175,1.0,4.0,91,0.00,,,0.00,0,Wunderground v.1.15,2013-03-04 11:09:00,
2013-03-04 05:14:00,53.2,50.6,29.94,South,171,1.0,4.0,91,0.00,,,0.00,0,Wunderground v.1.15,2013-03-04 11:14:00,
2013-03-04 05:19:00,53.2,50.6,29.94,South,172,1.0,1.0,91,0.00,,,0.00,0,Wunderground v.1.15,2013-03-04 11:19:00,
2013-03-04 05:24:00,53.3,50.7,29.94,South,171,1.0,7.0,91,0.00,,,0.00,0,Wunderground v.1.15,2013-03-04 11:24:00,
2013-03-04 05:34:00,53.5,50.9,29.94,SSW,198,1.0,2.0,91,0.00,,,0.00,0,Wunderground v.1.15,2013-03-04 11:34:00,
2013-03-04 05:39:00,53.4,50.8,29.94,SSE,157,1.0,1.0,91,0.00,,,0.00,0,Wunderground v.1.15,2013-03-04 11:39:00,
2013-03-04 05:44:00,53.5,50.9,29.93,SSW,202,1.0,1.0,91,0.00,,,0.00,0,Wunderground v.1.15,2013-03-04 11:44:00,
2013-03-04 05:49:00,53.7,51.1,29.93,SSE,157,2.0,3.0,91,0.00,,,0.00,0,Wunderground v.1.15,2013-03-04 11:49:00,
2013-03-04 05:54:00,53.7,51.1,29.93,SSW,200,2.0,3.0,91,0.00,,,0.00,0,Wunderground v.1.15,2013-03-04 11:54:00,
2013-03-04 05:59:00,53.9,51.3,29.93,SSE,161,3.0,3.0,91,0.00,,,0.00,0,Wunderground v.1.15,2013-03-04 11:59:00,
2013-03-04 06:09:00,54.1,51.2,29.93,SSW,192,3.0,3.0,90,0.00,,,0.00,0,Wunderground v.1.15,2013-03-04 12:09:00,
2013-03-04 06:14:00,54.1,51.2,29.93,SSE,165,2.0,3.0,90,0.00,,,0.00,0,Wunderground v.1.15,2013-03-04 12:14:00,
2013-03-04 06:19:00,54.1,51.5,29.93,SSW,194,1.0,3.0,91,0.00,,,0.00,0,Wunderground v.1.15,2013-03-04 12:19:00,
2013-03-04 06:25:00,54.2,51.3,29.93,SSE,164,2.0,3.0,90,0.00,,,0.00,0,Wunderground v.1.15,2013-03-04 12:25:00,
2013-03-04 06:34:00,54.1,51.2,29.93,South,185,1.0,4.0,90,0.00,,,0.00,0,Wunderground v.1.15,2013-03-04 12:34:00,
2013-03-04 06:39:00,54.1,51.5,29.94,SSW,197,1.0,1.0,91,0.00,,,0.00,5,Wunderground v.1.15,2013-03-04 12:39:00,
2013-03-04 06:49:00,54.4,51.5,29.94,SW,224,2.0,3.0,90,0.00,,,0.00,12,Wunderground v.1.15,2013-03-04 12:49:00,
2013-03-04 06:54:00,54.5,51.9,29.94,SSW,198,2.0,4.0,91,0.00,,,0.00,16,Wunderground v.1.15,2013-03-04 12:54:00,
2013-03-04 07:00:00,54.6,52.0,29.94,SSW,211,2.0,2.0,91,0.00,,,0.00,19,Wunderground v.1.15,2013-03-04 13:00:00,
2013-03-04 07:09:00,54.8,51.9,29.94,South,184,2.0,5.0,90,0.00,,,0.00,28,Wunderground v.1.15,2013-03-04 13:09:00,
2013-03-04 07:14:00,55.0,52.1,29.94,SSW,192,2.0,5.0,90,0.00,,,0.00,56,Wunderground v.1.15,2013-03-04 13:14:00,
2013-03-04 07:19:00,55.3,52.4,29.94,SW,215,2.0,2.0,90,0.00,,,0.00,72,Wunderground v.1.15,2013-03-04 13:19:00,
2013-03-04 07:24:00,55.6,52.7,29.95,South,178,2.0,2.0,90,0.00,,,0.00,86,Wunderground v.1.15,2013-03-04 13:24:00,
2013-03-04 07:30:00,56.0,52.8,29.94,SSW,205,2.0,2.0,89,0.00,,,0.00,93,Wunderground v.1.15,2013-03-04 13:30:00,
2013-03-04 07:39:00,56.6,53.4,29.94,SSE,167,2.0,3.0,89,0.00,,,0.00,125,Wunderground v.1.15,2013-03-04 13:39:00,
2013-03-04 07:44:00,57.0,53.5,29.94,SSW,203,2.0,3.0,88,0.00,,,0.00,83,Wunderground v.1.15,2013-03-04 13:44:00,
2013-03-04 07:54:00,57.9,54.1,29.93,South,175,4.0,4.0,87,0.00,,,0.00,144,Wunderground v.1.15,2013-03-04 13:54:00,
2013-03-04 07:59:00,58.4,54.5,29.93,South,184,4.0,5.0,87,0.00,,,0.00,83,Wunderground v.1.15,2013-03-04 13:59:00,
2013-03-04 08:04:00,58.9,54.7,29.93,SW,216,4.0,10.0,86,0.00,,,0.00,65,Wunderground v.1.15,2013-03-04 14:04:00,
2013-03-04 08:09:00,59.4,55.2,29.94,SW,219,4.0,4.0,86,0.00,,,0.00,95,Wunderground v.1.15,2013-03-04 14:09:00,
2013-03-04 08:14:00,59.9,55.4,29.93,SSW,211,4.0,6.0,85,0.00,,,0.00,287,Wunderground v.1.15,2013-03-04 14:14:00,
2013-03-04 08:24:00,61.2,56.0,29.94,SSW,192,5.0,12.0,83,0.00,,,0.00,214,Wunderground v.1.15,2013-03-04 14:24:00,
2013-03-04 08:34:00,62.2,56.6,29.93,SSW,192,5.0,6.0,82,0.00,,,0.00,348,Wunderground v.1.15,2013-03-04 14:34:00,
2013-03-04 08:39:00,62.8,56.9,29.93,South,184,6.0,6.0,81,0.00,,,0.00,348,Wunderground v.1.15,2013-03-04 14:39:00,
2013-03-04 08:44:00,63.3,57.4,29.93,SSE,166,5.0,6.0,81,0.00,,,0.00,334,Wunderground v.1.15,2013-03-04 14:44:00,
2013-03-04 08:50:00,63.9,57.6,29.92,SSW,205,6.0,11.0,80,0.00,,,0.00,401,Wunderground v.1.15,2013-03-04 14:50:00,
2013-03-04 08:59:00,64.8,57.8,29.93,WSW,239,8.0,8.0,78,0.00,,,0.00,443,Wunderground v.1.15,2013-03-04 14:59:00,
2013-03-04 09:04:00,65.4,58.0,29.93,South,174,8.0,10.0,77,0.00,,,0.00,466,Wunderground v.1.15,2013-03-04 15:04:00,
2013-03-04 09:09:00,65.8,58.4,29.93,South,181,9.0,12.0,77,0.00,,,0.00,536,Wunderground v.1.15,2013-03-04 15:09:00,
2013-03-04 09:14:00,66.2,58.0,29.93,SSW,206,10.0,12.0,75,0.00,,,0.00,534,Wunderground v.1.15,2013-03-04 15:14:00,
2013-03-04 09:24:00,66.7,58.1,29.92,SSW,213,9.0,10.0,74,0.00,,,0.00,211,Wunderground v.1.15,2013-03-04 15:24:00,
2013-03-04 09:29:00,67.0,58.4,29.93,SSW,206,8.0,18.0,74,0.00,,,0.00,258,Wunderground v.1.15,2013-03-04 15:29:00,
2013-03-04 09:34:00,67.4,58.4,29.93,South,186,10.0,18.0,73,0.00,,,0.00,684,Wunderground v.1.15,2013-03-04 15:34:00,
2013-03-04 09:45:00,67.8,58.8,29.93,SW,218,10.0,21.0,73,0.00,,,0.00,295,Wunderground v.1.15,2013-03-04 15:45:00,
2013-03-04 09:54:00,68.2,58.4,29.93,WSW,244,11.0,20.0,71,0.00,,,0.00,248,Wunderground v.1.15,2013-03-04 15:54:00,
2013-03-04 09:59:00,68.4,58.6,29.93,SW,223,10.0,10.0,71,0.00,,,0.00,353,Wunderground v.1.15,2013-03-04 15:59:00,
2013-03-04 10:04:00,68.5,58.7,29.93,SSW,209,11.0,17.0,71,0.00,,,0.00,420,Wunderground v.1.15,2013-03-04 16:04:00,
2013-03-04 10:10:00,68.8,59.0,29.93,South,191,11.0,11.0,71,0.00,,,0.00,420,Wunderground v.1.15,2013-03-04 16:10:00,
2013-03-04 10:19:00,69.8,58.3,29.93,South,176,10.0,16.0,67,0.00,,,0.00,271,Wunderground v.1.15,2013-03-04 16:19:00,
2013-03-04 10:24:00,69.2,58.2,29.93,South,184,11.0,16.0,68,0.00,,,0.00,230,Wunderground v.1.15,2013-03-04 16:24:00,
2013-03-04 10:29:00,68.9,58.3,29.93,SW,216,12.0,19.0,69,0.00,,,0.00,209,Wunderground v.1.15,2013-03-04 16:29:00,
2013-03-04 10:34:00,68.8,58.2,29.92,SSW,207,12.0,19.0,69,0.00,,,0.00,207,Wunderground v.1.15,2013-03-04 16:34:00,
2013-03-04 10:39:00,68.8,58.2,29.92,SW,219,12.0,12.0,69,0.00,,,0.00,619,Wunderground v.1.15,2013-03-04 16:39:00,
2013-03-04 10:49:00,69.4,58.4,29.93,South,186,11.0,11.0,68,0.00,,,0.00,234,Wunderground v.1.15,2013-03-04 16:49:00,
2013-03-04 10:59:00,69.7,59.1,29.93,SSW,192,10.0,10.0,69,0.00,,,0.00,835,Wunderground v.1.15,2013-03-04 16:59:00,
2013-03-04 11:04:00,70.4,59.3,29.93,SSW,210,9.0,10.0,68,0.00,,,0.00,346,Wunderground v.1.15,2013-03-04 17:04:00,
2013-03-04 11:10:00,71.0,59.5,29.93,South,182,8.0,10.0,67,0.00,,,0.00,315,Wunderground v.1.15,2013-03-04 17:10:00,
2013-03-04 11:19:00,70.9,59.0,29.93,SW,224,11.0,19.0,66,0.00,,,0.00,338,Wunderground v.1.15,2013-03-04 17:19:00,
2013-03-04 11:24:00,71.3,59.4,29.93,SSW,207,12.0,22.0,66,0.00,,,0.00,613,Wunderground v.1.15,2013-03-04 17:24:00,
2013-03-04 11:34:00,71.5,59.1,29.92,WSW,240,13.0,15.0,65,0.00,,,0.00,297,Wunderground v.1.15,2013-03-04 17:34:00,
2013-03-04 11:44:00,71.7,59.3,29.91,WSW,238,8.0,17.0,65,0.00,,,0.00,320,Wunderground v.1.15,2013-03-04 17:44:00,
2013-03-04 11:49:00,71.5,59.1,29.91,WSW,250,8.0,8.0,65,0.00,,,0.00,675,Wunderground v.1.15,2013-03-04 17:49:00,
2013-03-04 11:54:00,71.5,59.1,29.90,SW,229,12.0,17.0,65,0.00,,,0.00,346,Wunderground v.1.15,2013-03-04 17:54:00,
2013-03-04 11:59:00,71.5,59.5,29.90,SW,216,12.0,12.0,66,0.00,,,0.00,471,Wunderground v.1.15,2013-03-04 17:59:00,
2013-03-04 12:04:00,71.9,59.5,29.90,SW,220,10.0,12.0,65,0.00,,,0.00,352,Wunderground v.1.15,2013-03-04 18:04:00,
2013-03-04 12:09:00,71.8,59.4,29.89,SSW,213,11.0,18.0,65,0.00,,,0.00,559,Wunderground v.1.15,2013-03-04 18:09:00,
2013-03-04 12:19:00,72.1,59.7,29.89,SSW,211,8.0,9.0,65,0.00,,,0.00,958,Wunderground v.1.15,2013-03-04 18:19:00,
2013-03-04 12:24:00,72.0,60.0,29.89,SW,235,10.0,12.0,66,0.00,,,0.00,239,Wunderground v.1.15,2013-03-04 18:24:00,
2013-03-04 12:29:00,72.2,60.2,29.88,SW,227,10.0,10.0,66,0.00,,,0.00,274,Wunderground v.1.15,2013-03-04 18:29:00,
2013-03-04 12:34:00,73.0,60.5,29.88,SW,220,7.0,10.0,65,0.00,,,0.00,823,Wunderground v.1.15,2013-03-04 18:34:00,
2013-03-04 12:39:00,72.7,60.3,29.87,South,182,9.0,14.0,65,0.00,,,0.00,396,Wunderground v.1.15,2013-03-04 18:39:00,
2013-03-04 12:49:00,72.4,59.5,29.88,WSW,255,10.0,10.0,64,0.00,,,0.00,285,Wunderground v.1.15,2013-03-04 18:49:00,
2013-03-04 12:54:00,72.3,59.9,29.88,SSW,209,10.0,10.0,65,0.00,,,0.00,401,Wunderground v.1.15,2013-03-04 18:54:00,
2013-03-04 12:59:00,72.6,60.2,29.88,SSW,194,10.0,10.0,65,0.00,,,0.00,404,Wunderground v.1.15,2013-03-04 18:59:00,
2013-03-04 13:09:00,72.6,60.2,29.87,SSW,196,11.0,14.0,65,0.00,,,0.00,250,Wunderground v.1.15,2013-03-04 19:09:00,
2013-03-04 13:14:00,72.8,59.5,29.86,South,188,11.0,14.0,63,0.00,,,0.00,327,Wunderground v.1.15,2013-03-04 19:14:00,
2013-03-04 13:19:00,72.9,60.0,29.85,SW,236,13.0,15.0,64,0.00,,,0.00,327,Wunderground v.1.15,2013-03-04 19:19:00,
2013-03-04 13:24:00,73.5,60.6,29.85,WSW,244,11.0,15.0,64,0.00,,,0.00,870,Wunderground v.1.15,2013-03-04 19:24:00,
2013-03-04 13:29:00,74.0,60.6,29.85,SW,215,8.0,9.0,63,0.00,,,0.00,998,Wunderground v.1.15,2013-03-04 19:29:00,
2013-03-04 13:39:00,74.2,60.3,29.84,South,171,10.0,13.0,62,0.00,,,0.00,988,Wunderground v.1.15,2013-03-04 19:39:00,
2013-03-04 13:44:00,74.0,60.2,29.84,SW,218,10.0,16.0,62,0.00,,,0.00,380,Wunderground v.1.15,2013-03-04 19:44:00,
2013-03-04 13:49:00,74.0,60.6,29.84,SW,234,10.0,13.0,63,0.00,,,0.00,921,Wunderground v.1.15,2013-03-04 19:49:00,
2013-03-04 13:54:00,74.1,60.2,29.84,South,171,11.0,13.0,62,0.00,,,0.00,313,Wunderground v.1.15,2013-03-04 19:54:00,
2013-03-04 13:59:00,74.4,61.0,29.84,SSW,212,10.0,10.0,63,0.00,,,0.00,958,Wunderground v.1.15,2013-03-04 19:59:00,
2013-03-04 14:09:00,74.7,60.8,29.84,South,190,10.0,10.0,62,0.00,,,0.00,360,Wunderground v.1.15,2013-03-04 20:09:00,
2013-03-04 14:14:00,74.3,60.0,29.83,SSW,203,8.0,12.0,61,0.00,,,0.00,251,Wunderground v.1.15,2013-03-04 20:14:00,
2013-03-04 14:24:00,74.5,60.6,29.84,SSW,206,10.0,10.0,62,0.00,,,0.00,315,Wunderground v.1.15,2013-03-04 20:24:00,
2013-03-04 14:29:00,74.5,60.6,29.83,South,186,9.0,14.0,62,0.00,,,0.00,394,Wunderground v.1.15,2013-03-04 20:29:00,
2013-03-04 14:34:00,74.2,60.3,29.83,SW,233,10.0,14.0,62,0.00,,,0.00,304,Wunderground v.1.15,2013-03-04 20:34:00,
2013-03-04 14:39:00,73.9,60.5,29.83,SSW,209,10.0,10.0,63,0.00,,,0.00,274,Wunderground v.1.15,2013-03-04 20:39:00,
2013-03-04 14:44:00,73.7,60.3,29.83,WSW,251,10.0,10.0,63,0.00,,,0.00,295,Wunderground v.1.15,2013-03-04 20:44:00,
2013-03-04 14:54:00,74.3,60.4,29.83,SW,215,8.0,9.0,62,0.00,,,0.00,311,Wunderground v.1.15,2013-03-04 20:54:00,
2013-03-04 14:59:00,74.0,60.2,29.83,South,190,8.0,13.0,62,0.00,,,0.00,264,Wunderground v.1.15,2013-03-04 20:59:00,
2013-03-04 15:04:00,74.0,60.6,29.83,SW,233,9.0,13.0,63,0.00,,,0.00,793,Wunderground v.1.15,2013-03-04 21:04:00,
2013-03-04 15:09:00,74.2,60.3,29.83,SW,216,11.0,11.0,62,0.00,,,0.00,765,Wunderground v.1.15,2013-03-04 21:09:00,
2013-03-04 15:14:00,74.3,60.4,29.82,SW,217,11.0,13.0,62,0.00,,,0.00,749,Wunderground v.1.15,2013-03-04 21:14:00,
2013-03-04 15:24:00,74.2,60.8,29.82,South,169,10.0,11.0,63,0.00,,,0.00,554,Wunderground v.1.15,2013-03-04 21:24:00,
2013-03-04 15:29:00,73.7,60.8,29.83,SW,219,10.0,20.0,64,0.00,,,0.00,566,Wunderground v.1.15,2013-03-04 21:29:00,
2013-03-04 15:35:00,73.7,60.8,29.82,SSW,202,9.0,20.0,64,0.00,,,0.00,315,Wunderground v.1.15,2013-03-04 21:35:00,
2013-03-04 15:40:00,73.6,61.1,29.82,SSW,194,9.0,9.0,65,0.00,,,0.00,315,Wunderground v.1.15,2013-03-04 21:40:00,
2013-03-04 15:49:00,73.1,60.6,29.82,SW,219,9.0,11.0,65,0.00,,,0.00,190,Wunderground v.1.15,2013-03-04 21:49:00,
2013-03-04 15:54:00,72.7,60.7,29.81,SW,214,10.0,11.0,66,0.00,,,0.00,253,Wunderground v.1.15,2013-03-04 21:54:00,
2013-03-04 15:59:00,72.6,60.6,29.81,SW,223,9.0,16.0,66,0.00,,,0.00,533,Wunderground v.1.15,2013-03-04 21:59:00,
2013-03-04 16:09:00,72.1,60.5,29.81,WSW,251,12.0,12.0,67,0.00,,,0.00,490,Wunderground v.1.15,2013-03-04 22:09:00,
2013-03-04 16:19:00,72.9,60.0,29.80,SSE,159,11.0,13.0,64,0.00,,,0.00,285,Wunderground v.1.15,2013-03-04 22:19:00,
2013-03-04 16:24:00,72.7,60.7,29.80,SSW,205,12.0,13.0,66,0.00,,,0.00,422,Wunderground v.1.15,2013-03-04 22:24:00,
2013-03-04 16:29:00,73.0,61.0,29.80,SSW,208,10.0,19.0,66,0.00,,,0.00,241,Wunderground v.1.15,2013-03-04 22:29:00,
2013-03-04 16:39:00,72.6,61.0,29.80,SW,214,10.0,10.0,67,0.00,,,0.00,174,Wunderground v.1.15,2013-03-04 22:39:00,
2013-03-04 16:44:00,72.0,60.4,29.80,SSE,163,9.0,10.0,67,0.00,,,0.00,127,Wunderground v.1.15,2013-03-04 22:44:00,
2013-03-04 16:49:00,71.2,60.5,29.80,WSW,249,10.0,12.0,69,0.00,,,0.00,171,Wunderground v.1.15,2013-03-04 22:49:00,
2013-03-04 16:54:00,70.8,60.5,29.81,SSW,213,11.0,13.0,70,0.00,,,0.00,148,Wunderground v.1.15,2013-03-04 22:54:00,
2013-03-04 17:04:00,70.5,60.2,29.80,SW,226,12.0,19.0,70,0.00,,,0.00,118,Wunderground v.1.15,2013-03-04 23:04:00,
2013-03-04 17:09:00,70.3,60.4,29.80,South,188,12.0,12.0,71,0.00,,,0.00,123,Wunderground v.1.15,2013-03-04 23:09:00,
2013-03-04 17:14:00,70.1,60.3,29.80,WSW,242,12.0,12.0,71,0.00,,,0.00,102,Wunderground v.1.15,2013-03-04 23:14:00,
2013-03-04 17:20:00,69.9,60.5,29.80,SW,217,12.0,12.0,72,0.00,,,0.00,102,Wunderground v.1.15,2013-03-04 23:20:00,
2013-03-04 17:29:00,69.7,60.3,29.82,SW,228,11.0,14.0,72,0.00,,,0.00,74,Wunderground v.1.15,2013-03-04 23:29:00,
2013-03-04 17:34:00,69.7,60.3,29.82,SSE,164,10.0,14.0,72,0.00,,,0.00,67,Wunderground v.1.15,2013-03-04 23:34:00,
2013-03-04 17:39:00,69.6,60.6,29.82,SSW,213,9.0,17.0,73,0.00,,,0.00,60,Wunderground v.1.15,2013-03-04 23:39:00,
2013-03-04 17:44:00,69.4,60.8,29.81,SW,221,8.0,17.0,74,0.00,,,0.00,37,Wunderground v.1.15,2013-03-04 23:44:00,
2013-03-04 17:49:00,69.3,60.7,29.81,South,180,8.0,8.0,74,0.00,,,0.00,35,Wunderground v.1.15,2013-03-04 23:49:00,
2013-03-04 17:59:00,69.1,60.8,29.82,WSW,252,6.0,6.0,75,0.00,,,0.00,11,Wunderground v.1.15,2013-03-04 23:59:00,
2013-03-04 18:04:00,68.9,61.0,29.81,South,182,6.0,13.0,76,0.00,,,0.00,7,Wunderground v.1.15,2013-03-05 00:04:00,
2013-03-04 18:09:00,68.7,61.2,29.81,South,191,7.0,7.0,77,0.00,,,0.00,0,Wunderground v.1.15,2013-03-05 00:09:00,
2013-03-04 18:14:00,68.5,61.0,29.81,SSW,204,7.0,10.0,77,0.00,,,0.00,0,Wunderground v.1.15,2013-03-05 00:14:00,
2013-03-04 18:24:00,68.2,61.1,29.82,South,179,4.0,5.0,78,0.00,,,0.00,0,Wunderground v.1.15,2013-03-05 00:24:00,
2013-03-04 18:29:00,68.0,61.2,29.81,South,174,4.0,4.0,79,0.00,,,0.00,0,Wunderground v.1.15,2013-03-05 00:29:00,
2013-03-04 18:34:00,67.9,61.1,29.81,SW,230,6.0,6.0,79,0.00,,,0.00,0,Wunderground v.1.15,2013-03-05 00:34:00,
2013-03-04 18:44:00,67.6,61.2,29.80,SSW,209,5.0,12.0,80,0.00,,,0.00,0,Wunderground v.1.15,2013-03-05 00:44:00,
2013-03-04 18:54:00,67.2,61.2,29.82,WSW,255,4.0,15.0,81,0.00,,,0.00,0,Wunderground v.1.15,2013-03-05 00:54:00,
2013-03-04 18:59:00,67.1,61.1,29.82,South,189,5.0,7.0,81,0.00,,,0.00,0,Wunderground v.1.15,2013-03-05 00:59:00,
2013-03-04 19:04:00,66.9,60.9,29.82,South,186,5.0,7.0,81,0.00,,,0.00,0,Wunderground v.1.15,2013-03-05 01:04:00,
2013-03-04 19:09:00,66.7,61.0,29.82,South,185,3.0,6.0,82,0.00,,,0.00,0,Wunderground v.1.15,2013-03-05 01:09:00,
2013-03-04 19:19:00,66.5,61.2,29.82,SSE,167,3.0,3.0,83,0.00,,,0.00,0,Wunderground v.1.15,2013-03-05 01:19:00,
2013-03-04 19:29:00,66.4,61.1,29.83,WSW,238,2.0,5.0,83,0.00,,,0.00,0,Wunderground v.1.15,2013-03-05 01:29:00,
2013-03-04 19:34:00,66.3,61.0,29.83,SW,215,3.0,5.0,83,0.00,,,0.00,0,Wunderground v.1.15,2013-03-05 01:34:00,
2013-03-04 19:39:00,66.2,60.9,29.83,SSW,202,4.0,4.0,83,0.00,,,0.00,0,Wunderground v.1.15,2013-03-05 01:39:00,
2013-03-04 19:45:00,66.1,60.8,29.82,SSW,204,4.0,4.0,83,0.00,,,0.00,0,Wunderground v.1.15,2013-03-05 01:45:00,
2013-03-04 19:54:00,66.1,61.1,29.82,SW,217,4.0,7.0,84,0.00,,,0.00,0,Wunderground v.1.15,2013-03-05 01:54:00,
2013-03-04 19:59:00,66.0,61.0,29.82,SW,215,3.0,3.0,84,0.00,,,0.00,0,Wunderground v.1.15,2013-03-05 01:59:00,
2013-03-04 20:04:00,65.9,60.9,29.82,South,180,2.0,7.0,84,0.00,,,0.00,0,Wunderground v.1.15,2013-03-05 02:04:00,
2013-03-04 20:14:00,65.8,60.8,29.82,South,178,3.0,7.0,84,0.00,,,0.00,0,Wunderground v.1.15,2013-03-05 02:14:00,
2013-03-04 20:19:00,65.7,60.7,29.82,SSE,165,4.0,4.0,84,0.00,,,0.00,0,Wunderground v.1.15,2013-03-05 02:19:00,
2013-03-04 20:29:00,65.6,61.0,29.82,SSW,203,3.0,6.0,85,0.00,,,0.00,0,Wunderground v.1.15,2013-03-05 02:29:00,
2013-03-04 20:39:00,65.6,61.0,29.82,South,175,4.0,4.0,85,0.00,,,0.00,0,Wunderground v.1.15,2013-03-05 02:39:00,
2013-03-04 20:44:00,65.4,60.8,29.83,SSW,194,3.0,4.0,85,0.00,,,0.00,0,Wunderground v.1.15,2013-03-05 02:44:00,
2013-03-04 20:49:00,65.4,60.8,29.83,South,173,3.0,4.0,85,0.00,,,0.00,0,Wunderground v.1.15,2013-03-05 02:49:00,
2013-03-04 20:54:00,65.3,60.7,29.84,South,187,2.0,4.0,85,0.00,,,0.00,0,Wunderground v.1.15,2013-03-05 02:54:00,
2013-03-04 21:04:00,65.3,61.0,29.84,SSW,209,1.0,3.0,86,0.00,,,0.00,0,Wunderground v.1.15,2013-03-05 03:04:00,
2013-03-04 21:09:00,65.4,61.1,29.84,South,175,3.0,4.0,86,0.00,,,0.00,0,Wunderground v.1.15,2013-03-05 03:09:00,
2013-03-04 21:14:00,65.4,61.1,29.84,SSW,195,3.0,4.0,86,0.00,,,0.00,0,Wunderground v.1.15,2013-03-05 03:14:00,
2013-03-04 21:19:00,65.4,61.1,29.85,SSW,198,3.0,4.0,86,0.00,,,0.00,0,Wunderground v.1.15,2013-03-05 03:19:00,
2013-03-04 21:24:00,65.5,61.2,29.84,South,170,3.0,5.0,86,0.00,,,0.00,0,Wunderground v.1.15,2013-03-05 03:24:00,
2013-03-04 21:29:00,65.4,61.1,29.84,South,189,2.0,2.0,86,0.00,,,0.00,0,Wunderground v.1.15,2013-03-05 03:29:00,
2013-03-04 21:39:00,65.3,61.0,29.83,South,181,2.0,2.0,86,0.00,,,0.00,0,Wunderground v.1.15,2013-03-05 03:39:00,
2013-03-04 21:44:00,65.2,60.9,29.84,South,169,3.0,3.0,86,0.00,,,0.00,0,Wunderground v.1.15,2013-03-05 03:44:00,
2013-03-04 21:49:00,65.3,61.0,29.84,SE,134,4.0,4.0,86,0.00,,,0.00,0,Wunderground v.1.15,2013-03-05 03:49:00,
2013-03-04 21:59:00,65.2,61.2,29.85,SW,221,3.0,5.0,87,0.00,,,0.00,0,Wunderground v.1.15,2013-03-05 03:59:00,
2013-03-04 22:04:00,65.2,61.2,29.85,SSW,192,3.0,5.0,87,0.00,,,0.00,0,Wunderground v.1.15,2013-03-05 04:04:00,
2013-03-04 22:09:00,65.1,61.1,29.85,SW,217,2.0,2.0,87,0.00,,,0.00,0,Wunderground v.1.15,2013-03-05 04:09:00,
2013-03-04 22:19:00,64.9,60.9,29.85,SSE,159,2.0,2.0,87,0.00,,,0.00,0,Wunderground v.1.15,2013-03-05 04:19:00,
2013-03-04 22:24:00,64.9,60.9,29.84,SSW,200,1.0,2.0,87,0.00,,,0.00,0,Wunderground v.1.15,2013-03-05 04:24:00,
2013-03-04 22:29:00,64.9,60.9,29.84,SSW,208,1.0,1.0,87,0.00,,,0.00,0,Wunderground v.1.15,2013-03-05 04:29:00,
2013-03-04 22:34:00,64.8,60.8,29.84,SW,217,2.0,9.0,87,0.00,,,0.00,0,Wunderground v.1.15,2013-03-05 04:34:00,
2013-03-04 22:44:00,64.9,60.9,29.85,SW,214,2.0,2.0,87,0.00,,,0.00,0,Wunderground v.1.15,2013-03-05 04:44:00,
2013-03-04 22:49:00,64.9,60.9,29.84,SSW,197,3.0,3.0,87,0.00,,,0.00,0,Wunderground v.1.15,2013-03-05 04:49:00,
2013-03-04 22:54:00,64.9,60.9,29.84,SW,234,2.0,3.0,87,0.00,,,0.00,0,Wunderground v.1.15,2013-03-05 04:54:00,
2013-03-04 22:59:00,64.9,61.3,29.84,SSW,210,2.0,5.0,88,0.00,,,0.00,0,Wunderground v.1.15,2013-03-05 04:59:00,
2013-03-04 23:04:00,64.9,61.3,29.85,SW,221,2.0,5.0,88,0.00,,,0.00,0,Wunderground v.1.15,2013-03-05 05:04:00,
2013-03-04 23:09:00,64.9,61.3,29.84,South,182,3.0,4.0,88,0.00,,,0.00,0,Wunderground v.1.15,2013-03-05 05:09:00,
2013-03-04 23:14:00,64.8,61.2,29.85,SW,224,2.0,4.0,88,0.00,,,0.00,0,Wunderground v.1.15,2013-03-05 05:14:00,
2013-03-04 23:19:00,64.8,61.2,29.84,SSW,193,3.0,3.0,88,0.00,,,0.00,0,Wunderground v.1.15,2013-03-05 05:19:00,
2013-03-04 23:29:00,64.7,61.1,29.84,South,182,2.0,2.0,88,0.00,,,0.00,0,Wunderground v.1.15,2013-03-05 05:29:00,
2013-03-04 23:34:00,64.6,61.0,29.84,SSW,196,2.0,2.0,88,0.00,,,0.00,0,Wunderground v.1.15,2013-03-05 05:34:00,
2013-03-04 23:44:00,64.5,60.9,29.85,SSW,202,2.0,3.0,88,0.00,,,0.00,0,Wunderground v.1.15,2013-03-05 05:44:00,
2013-03-04 23:49:00,64.5,61.2,29.85,SW,236,1.0,4.0,89,0.00,,,0.00,0,Wunderground v.1.15,2013-03-05 05:49:00,
2013-03-04 23:54:00,64.5,61.2,29.85,SW,216,2.0,4.0,89,0.00,,,0.00,0,Wunderground v.1.15,2013-03-05 05:54:00,